This is the latest recevied weather packets stored in our database for station/object OE6JVE-13. If no packets are shown the sender has not sent any weather packets the latest 1 day(s).
| Time | Temp. | Humidity | Pressure | Rain* | Wind** | Luminosity | Snow |
|---|---|---|---|---|---|---|---|
| 1777988137 | 20.56° C | 43% | 1003.6 hPa | 0 mm | 1.34 m/s, 183° | - | - |
| 1777987549 | 20.56° C | 42% | 1003.6 hPa | 0 mm | 1.34 m/s, 185° | - | - |
| 1777986952 | 20.56° C | 42% | 1003.7 hPa | 0 mm | 1.34 m/s, 179° | - | - |
| 1777986360 | 20.56° C | 42% | 1003.6 hPa | 0 mm | 1.79 m/s, 235° | - | - |
| 1777985768 | 20° C | 42% | 1003.7 hPa | 0 mm | 2.68 m/s, 182° | - | - |
| 1777985176 | 20° C | 41% | 1003.8 hPa | 0 mm | 3.13 m/s, 184° | - | - |
| 1777984518 | 20.56° C | 41% | 1003.8 hPa | 0 mm | 1.79 m/s, 190° | - | - |
| 1777983926 | 20.56° C | 41% | 1003.8 hPa | 0 mm | 2.24 m/s, 172° | - | - |
| 1777983334 | 21.11° C | 41% | 1003.8 hPa | 0 mm | 3.58 m/s, 200° | - | - |
| 1777982742 | 21.11° C | 41% | 1003.9 hPa | 0 mm | 1.34 m/s, 180° | - | - |
| 1777982150 | 21.67° C | 41% | 1003.7 hPa | 0 mm | 3.58 m/s, 206° | - | - |
| 1777981558 | 22.22° C | 37% | 1003.6 hPa | 0 mm | 4.92 m/s, 180° | - | - |
| 1777980965 | 22.78° C | 37% | 1003.5 hPa | 0 mm | 5.36 m/s, 192° | - | - |
| 1777980373 | 22.78° C | 35% | 1003.3 hPa | 0 mm | 4.47 m/s, 181° | - | - |
| 1777979716 | 22.78° C | 33% | 1003.2 hPa | 0 mm | 3.58 m/s, 197° | - | - |
| 1777979124 | 23.33° C | 31% | 1003.2 hPa | 0 mm | 5.36 m/s, 219° | - | - |
| 1777978532 | 23.33° C | 30% | 1003.1 hPa | 0 mm | 4.02 m/s, 174° | - | - |
| 1777977940 | 24.44° C | 30% | 1003 hPa | 0 mm | 4.02 m/s, 187° | - | - |
| 1777977347 | 24.44° C | 30% | 1003 hPa | 0 mm | 4.02 m/s, 180° | - | - |
| 1777976755 | 24.44° C | 28% | 1003.1 hPa | 0 mm | 4.92 m/s, 187° | - | - |
| 1777976164 | 24.44° C | 26% | 1003.1 hPa | 0 mm | 4.02 m/s, 165° | - | - |
| 1777975572 | 23.89° C | 28% | 1003.2 hPa | 0 mm | 1.34 m/s, 180° | - | - |
| 1777974980 | 23.33° C | 29% | 1003.2 hPa | 0 mm | 3.58 m/s, 210° | - | - |
| 1777974322 | 24.44° C | 26% | 1003.2 hPa | 0 mm | 4.02 m/s, 205° | - | - |
| 1777973730 | 25° C | 28% | 1003.1 hPa | 0 mm | 4.02 m/s, 180° | - | - |
* Rain latest hour (hover to see other rain measurements)
** Current wind speed in m/s (hover to see current wind gust speed)